Find Starlink 35663

NORAD ID: 66491 Int'l Des: 2025-263 Owner: SPXS Country: US Constellation: starlink operational
LEOCIRCULAR

当前视图

正在加载3D地球...

About Starlink 35663

Starlink 35663 (NORAD 66491) is a starlink constellation satellite (v2 mini) launched Nov 15, 2025 by SPXS of US. It operates in LEO, CIRCULAR orbit with a mass of 575.00 kg.

关于 Starlink 35663

正在加载描述...

即将过境

Passes for default location (London). Set your location on the main map for personalized predictions.

高度历史

Loading altitude history...

两行轨道根数

1 66491U 25263G 26194.46686470 .00018488 00000-0 67940-3 0 9995
2 66491 43.0003 0.4822 0001412 309.7193 50.3534 15.27593548 38138
Epoch: Jul 13, 2026 • Age: 15 hours

当前状态

高度 486.8 km
远地点 / 近地点 N/A
速度 7.63 km/s
星下点 43.07°N, 133.68°E
发射日期 Nov 15, 2025
运行时间 0.6 years
类型 internet

技术详情

分类 Payload
质量 575.00 kg
干质量 530.00 kg
总质量 575.00 kg
长度 0.30 m
直径 4.10 m
跨度 29.00 m
形状 Box + pan
制造商 SPXS
平台类型 Starlink V2MO
阶段状态 In Orbit
所有者/国家 SPXS/US

Most Searched